Date String (YYYY-MM-DD hh:mm:ss) UTC,Instrument flags,absolute air pressure of the measurement (hPa),sample flow rate (lpm),inlet stack bypass flow (lpm),air temperature of the measurement (°C),ambient temperature measured by the external sensor (°C),aerosol sample conditioner tube jacket temperature (°C),OPC LED temperature (°C),internal box temperature (°C),relative humidity of the measurement (%),span deviation,mass concentration of particles derived from Lorenz-Mie calculation of OPC scattering (μg/m³),mass concentration of particles derived from Lorenz-Mie calculation of OPC scattering (μg/m³),mass concentration of particles derived from Lorenz-Mie calculation of OPC scattering (μg/m³)
DateTimeUTC,F1_M11,P_M11,Q1_M11,Q2_M11,T1_M11,T2_M11,T3_M11,T4_M11,T5_M11,U1_M11,ZSPAN_M11,X0_M11,X2_M11,X1_M11
2023-09-15 15:00:00,SystemResetWarning,0837.5,4.99,000.00,029.2,027.7,000.0,037.6,030.8,26.1,0000.0,0007.70,0004.00,0003.60
2023-09-15 15:01:00,SystemResetWarning,0837.5,4.99,000.00,029.2,027.7,000.0,037.6,030.8,26.9,0000.0,0007.73,0003.99,0003.60
2023-09-15 15:02:00,SystemResetWarning,0837.5,5.01,000.00,029.2,027.7,000.0,037.6,030.8,26.3,0000.0,0007.06,0004.01,0003.60
2023-09-15 15:03:00,SystemResetWarning,0837.5,5.01,000.00,029.2,027.7,000.0,037.6,030.8,26.0,0000.0,0007.19,0004.03,0003.60
2023-09-15 15:04:00,SystemResetWarning,0837.5,5.00,000.00,029.2,027.7,000.0,037.6,030.8,26.3,0000.0,0007.09,0004.00,0003.60
2023-09-15 15:05:00,SystemResetWarning,0837.5,5.00,000.00,029.2,027.7,000.0,037.6,030.8,26.1,0000.0,0007.13,0004.00,0003.59
2023-09-15 15:06:00,SystemResetWarning,0837.5,5.00,000.00,029.2,027.7,000.0,037.6,030.8,26.0,0000.0,0007.21,0004.03,0003.61
2023-09-15 15:07:00,SystemResetWarning,0837.5,4.99,000.00,029.2,027.6,000.0,037.6,030.8,25.6,0000.0,0007.34,0004.05,0003.61
2023-09-15 15:08:00,SystemResetWarning,0837.5,5.00,000.00,029.2,026.1,000.0,037.5,030.4,25.3,0000.0,0007.55,0004.07,0003.61
2023-09-15 15:09:00,SystemResetWarning,0837.5,5.00,000.00,029.0,025.0,000.0,037.4,030.1,26.1,0000.0,0007.48,0004.00,0003.60
2023-09-15 15:10:00,SystemResetWarning,0837.5,5.00,000.00,028.9,024.8,000.0,037.4,030.0,26.3,0000.0,0007.55,0004.01,0003.59
2023-09-15 15:11:00,SystemResetWarning,0837.5,5.01,000.00,028.8,025.1,000.0,037.4,029.9,27.0,0000.0,0007.58,0004.03,0003.60
2023-09-15 15:12:00,SystemResetWarning,0837.5,5.00,000.00,028.7,025.4,000.0,037.3,029.9,27.7,0000.0,0007.52,0004.04,0003.60
2023-09-15 15:13:00,SystemResetWarning,0837.5,5.00,000.00,028.7,025.7,000.0,037.3,030.0,27.1,0000.0,0007.49,0004.02,0003.59
2023-09-15 15:14:00,SystemResetWarning,0837.6,5.00,000.00,028.7,026.0,000.0,037.3,030.1,28.2,0000.0,0007.53,0004.02,0003.58
2023-09-15 15:15:00,SystemResetWarning,0837.6,5.01,000.00,028.7,026.2,000.0,037.2,030.1,27.0,0000.0,0007.53,0004.02,0003.58
2023-09-15 15:16:00,SystemResetWarning,0837.6,5.00,000.00,028.7,026.4,000.0,037.2,030.1,26.8,0000.0,0007.55,0004.02,0003.57
2023-09-15 15:17:00,SystemResetWarning,0837.5,4.99,000.00,028.7,026.6,000.0,037.2,030.2,26.6,0000.0,0007.51,0004.00,0003.56
2023-09-15 15:18:00,SystemResetWarning,0837.6,5.00,000.00,028.7,026.8,000.0,037.1,030.2,27.1,0000.0,0007.90,0004.00,0003.54
2023-09-15 15:19:00,SystemResetWarning,0837.6,5.00,000.00,028.7,026.9,000.0,037.1,030.2,27.3,0000.0,0007.91,0004.00,0003.55
2023-09-15 15:20:00,SystemResetWarning,0837.6,5.00,000.00,028.7,027.0,000.0,037.1,030.3,26.8,0000.0,0007.58,0004.00,0003.55
2023-09-15 15:21:00,SystemResetWarning,0837.6,5.00,000.00,028.7,027.0,000.0,037.1,030.3,26.7,0000.0,0007.55,0004.00,0003.54
2023-09-15 15:22:00,SystemResetWarning,0837.6,5.00,000.00,028.7,027.1,000.0,037.1,030.3,26.7,0000.0,0007.54,0003.99,0003.54
2023-09-15 15:23:00,SystemResetWarning,0837.6,5.00,000.00,028.7,027.2,000.0,037.1,030.3,27.3,0000.0,0007.52,0003.97,0003.53
2023-09-15 15:24:00,SystemResetWarning,0837.6,5.00,000.00,028.7,027.2,000.0,037.1,030.3,26.9,0000.0,0007.48,0003.97,0003.53
2023-09-15 15:25:00,SystemResetWarning,0837.6,5.00,000.00,028.7,027.3,000.0,037.1,030.4,26.5,0000.0,0007.40,0003.95,0003.52
2023-09-15 15:26:00,SystemResetWarning,0837.6,5.00,000.00,028.8,027.3,000.0,037.1,030.4,27.1,0000.0,0007.92,0003.96,0003.52
2023-09-15 15:27:00,SystemResetWarning,0837.6,5.00,000.00,028.8,027.3,000.0,037.1,030.4,26.6,0000.0,0008.03,0003.96,0003.51
2023-09-15 15:28:00,SystemResetWarning,0837.7,5.00,000.00,028.8,027.4,000.0,037.1,030.4,25.9,0000.0,0008.19,0003.97,0003.52
2023-09-15 15:29:00,SystemResetWarning,0837.7,5.00,000.00,028.8,027.4,000.0,037.1,030.4,26.1,0000.0,0008.20,0003.95,0003.52
2023-09-15 15:30:00,SystemResetWarning,0837.7,5.00,000.00,028.8,027.4,000.0,037.1,030.5,26.0,0000.0,0007.96,0003.93,0003.51
2023-09-15 15:31:00,SystemResetWarning,0837.7,5.00,000.00,028.8,027.4,000.0,037.1,030.5,25.9,0000.0,0008.22,0003.98,0003.52
2023-09-15 15:32:00,SystemResetWarning,0837.7,5.00,000.00,028.9,027.5,000.0,037.1,030.5,25.9,0000.0,0008.44,0004.01,0003.52
2023-09-15 15:33:00,SystemResetWarning,0837.8,5.00,000.00,028.9,027.5,000.0,037.1,030.5,26.2,0000.0,0008.45,0004.02,0003.51
2023-09-15 15:34:00,SystemResetWarning,0837.8,5.00,000.00,028.9,027.5,000.0,037.1,030.6,26.2,0000.0,0008.37,0004.02,0003.50
2023-09-15 15:35:00,SystemResetWarning,0837.8,5.00,000.00,028.9,027.5,000.0,037.1,030.6,26.3,0000.0,0008.39,0004.02,0003.50
2023-09-15 15:36:00,SystemResetWarning,0837.8,4.99,000.00,028.9,027.5,000.0,037.2,030.6,25.2,0000.0,0008.38,0004.03,0003.51
2023-09-15 15:37:00,SystemResetWarning,0837.8,5.00,000.00,028.9,027.6,000.0,037.2,030.6,24.5,0000.0,0007.99,0004.05,0003.52
2023-09-15 15:38:00,SystemResetWarning,0837.8,5.00,000.00,028.9,027.6,000.0,037.2,030.6,23.0,0000.0,0007.95,0004.06,0003.52
2023-09-15 15:39:00,SystemResetWarning,0837.8,5.00,000.00,029.0,027.6,000.0,037.2,030.6,23.2,0000.0,0008.40,0004.08,0003.53
2023-09-15 15:40:00,SystemResetWarning,0837.8,5.01,000.00,029.0,027.6,000.0,037.2,030.6,24.2,0000.0,0008.11,0004.11,0003.53
2023-09-15 15:41:00,SystemResetWarning,0837.8,5.00,000.00,029.0,027.6,000.0,037.2,030.6,23.5,0000.0,0008.04,0004.09,0003.53
2023-09-15 15:42:00,SystemResetWarning,0837.8,5.00,000.00,029.0,027.6,000.0,037.2,030.6,24.0,0000.0,0007.80,0004.06,0003.53
2023-09-15 15:43:00,SystemResetWarning,0837.8,5.00,000.00,029.0,027.6,000.0,037.2,030.7,23.4,0000.0,0007.74,0004.07,0003.53
2023-09-15 15:44:00,SystemResetWarning,0837.8,5.00,000.00,029.0,027.6,000.0,037.3,030.7,23.4,0000.0,0008.11,0004.06,0003.54
2023-09-15 15:45:00,SystemResetWarning,0837.7,5.00,000.00,029.0,027.7,000.0,037.3,030.7,23.8,0000.0,0008.20,0004.08,0003.54
2023-09-15 15:46:00,SystemResetWarning,0837.8,5.00,000.00,029.0,027.7,000.0,037.3,030.7,24.0,0000.0,0008.55,0004.15,0003.57
2023-09-15 15:47:00,SystemResetWarning,0837.7,4.99,000.00,029.1,027.7,000.0,037.3,030.7,24.2,0000.0,0008.73,0004.22,0003.59
2023-09-15 15:48:00,SystemResetWarning,0837.9,4.99,000.00,029.1,027.7,000.0,037.3,030.7,23.9,0000.0,0008.61,0004.22,0003.62
2023-09-15 15:49:00,SystemResetWarning,0837.8,5.00,000.00,029.1,027.7,000.0,037.3,030.7,24.0,0000.0,0008.53,0004.21,0003.63
2023-09-15 15:50:00,SystemResetWarning,0837.8,5.00,000.00,029.1,027.7,000.0,037.3,030.7,24.3,0000.0,0008.03,0004.21,0003.65
2023-09-15 15:51:00,SystemResetWarning,0837.9,5.00,000.00,029.1,027.7,000.0,037.4,030.7,24.5,0000.0,0008.02,0004.23,0003.67
2023-09-15 15:52:00,SystemResetWarning,0837.9,5.00,000.00,029.1,027.7,000.0,037.4,030.7,24.1,0000.0,0008.11,0004.26,0003.69
2023-09-15 15:53:00,SystemResetWarning,0837.8,4.99,000.00,029.1,026.6,000.0,037.3,030.5,23.7,0000.0,0008.29,0004.32,0003.71
2023-09-15 15:54:00,SystemResetWarning,0837.8,5.01,000.00,029.0,025.2,000.0,037.3,030.1,23.9,0000.0,0008.19,0004.31,0003.73
2023-09-15 15:55:00,SystemResetWarning,0837.8,5.01,000.00,028.8,024.9,000.0,037.2,030.0,24.5,0000.0,0007.91,0004.29,0003.74
2023-09-15 15:56:00,SystemResetWarning,0837.8,5.01,000.00,028.7,025.0,000.0,037.2,029.8,25.9,0000.0,0008.05,0004.31,0003.77
2023-09-15 15:57:00,SystemResetWarning,0837.8,4.99,000.00,028.7,025.3,000.0,037.2,029.9,27.1,0000.0,0007.84,0004.29,0003.77
2023-09-15 15:58:00,SystemResetWarning,0837.9,5.00,000.00,028.6,025.6,000.0,037.1,029.9,26.5,0000.0,0007.84,0004.25,0003.76
2023-09-15 15:59:00,SystemResetWarning,0838.0,5.01,000.00,028.6,025.9,000.0,037.1,030.0,25.9,0000.0,0008.40,0004.27,0003.76
